Regional Weather Roundup
Issued by NWS

Home | Current Version | Previous Version | Text Only | Print | Product List | Glossary Off
Versions: 1 2 3 4 5 6 7 8 9 10 11 12 13 14 15 16 17 18 19 20 21 22 23 24 25 26 27 28 29 30 31 32 33 34 35 36 37 38 39 40 41 42 43 44 45 46 47 48 49 50

000
ASUS45 KPSR 222210
RWRAZ

ARIZONA REGIONAL HOURLY WEATHER ROUNDUP
NATIONAL WEATHER SERVICE PHOENIX AZ
300 PM MST SAT NOV 22 2014

NOTE: FAIR INDICATES FEW OR NO CLOUDS BELOW 12,000 FEET WITH NO
SIGNIFICANT WEATHER AND/OR OBSTRUCTIONS TO VISIBILITY.

AZZ001>003-036-222300-
NORTHWEST ARIZONA

CITY           SKY/WX    TMP DP  RH WIND       PRES   REMARKS
BULLHEAD CITY  SUNNY     72  28  20 SW6       29.94S
KINGMAN        SUNNY     64  23  21 SW17      30.00S
$$

AZZ004>008-015-016-018-222300-
NORTH CENTRAL ARIZONA

CITY           SKY/WX    TMP DP  RH WIND       PRES   REMARKS
GRAND CANYON   SUNNY     55  15  20 W14G26    30.02F
PRESCOTT       PTSUNNY   60  15  17 W18       30.03F
FLAGSTAFF      MOSUNNY   50  14  23 W17G28    30.04F
PAYSON         SUNNY     59  19  21 SW10      30.05F
$$

AZZ009>014-017-222300-
NORTHEAST ARIZONA

CITY           SKY/WX    TMP DP  RH WIND       PRES   REMARKS
WINSLOW        MOSUNNY   66  15  14 SW23G29   29.94F
SAINT JOHNS    MOSUNNY   58  17  20 W8        29.98F
SHOW LOW       MOSUNNY   54  16  22 SW17G23   30.05F
$$

AZZ023-222300-
GREATER PHOENIX AREA

CITY           SKY/WX    TMP DP  RH WIND       PRES   REMARKS
PHOENIX        MOSUNNY   72  30  21 CALM      29.96F
BUCKEYE          N/A     68  28  22 SW5       29.98F
GLENDALE       MOSUNNY   70  32  24 SE3       29.99F
LUKE AFB       MOSUNNY   68  32  26 S7        29.96F
DEER VALLEY    SUNNY     68  28  22 S6        29.97F
SCOTTSDALE     SUNNY     68  31  25 CALM      29.99F
MESA-FALCON    PTSUNNY   68  32  26 S6        29.97F
MESA-GATEWAY   MOSUNNY   68  34  28 CALM      30.00F
CHANDLER       PTSUNNY   70  32  24 S7        29.98F
$$

AZZ027-028-222300-
SOUTHWEST MARICOPA COUNTY AND PINAL COUNTY

CITY           SKY/WX    TMP DP  RH WIND       PRES   REMARKS
CASA GRANDE    SUNNY     70  27  19 CALM      29.99F
$$

AZZ503-504-507>509-222300-
SOUTHEAST ARIZONA

CITY           SKY/WX    TMP DP  RH WIND       PRES   REMARKS
TUCSON         SUNNY     70  28  21 CALM      30.03F
DAVIS-MONTHAN  SUNNY     68  26  20 W6        30.01F
NOGALES        SUNNY     66  28  24 SW3       30.04F
SIERRA VISTA   SUNNY     65  20  17 W8        30.04F
DOUGLAS        SUNNY     65  24  21 CALM      30.03F
SAFFORD        SUNNY     65  21  18 W8        29.97F
$$

AZZ020-021-025-026-031-222300-
SOUTHWEST ARIZONA

CITY           SKY/WX    TMP DP  RH WIND       PRES   REMARKS
YUMA           PTSUNNY   77  34  21 S5        29.95F
$$

CAZ031-033-041-043-047-048-061-222300-
SOUTHERN CALIFORNIA

CITY           SKY/WX    TMP DP  RH WIND       PRES   REMARKS
DOWNTOWN L.A.  SUNNY     71  51  49 VRB5      30.02F
L.A. AIRPORT   MOSUNNY   67  57  70 W12       30.04F
SAN DIEGO      PTSUNNY   70  50  49 W6        30.06F
BURBANK        SUNNY     72  49  44 S9        30.02F
ONTARIO        PTSUNNY   71  43  36 W5        30.03F
RIVERSIDE      SUNNY     72  44  36 VRB3      30.03F
PALM SPRINGS   MOSUNNY   77  31  18 S5        29.95F
EL CENTRO NAS  MOSUNNY   81  35  19 S7        29.93F
IMPERIAL       SUNNY     79  36  21 VRB6      29.92F
BLYTHE         MOSUNNY   75  37  25 SE10      29.93F
NEEDLES        MOSUNNY   76  26  15 SW8       29.93F
$$

NVZ020-UTZ003-222300-
SOUTHERN NEVADA-UTAH

CITY           SKY/WX    TMP DP  RH WIND       PRES   REMARKS
LAS VEGAS      MOSUNNY   71  26  18 S20G28    29.84F
SALT LAKE CITY RAIN      44  39  82 S15G21    29.76R
$$

NMZ009-TXZ055-222300-
NEW MEXICO-WEST TEXAS

CITY           SKY/WX    TMP DP  RH WIND       PRES   REMARKS
ALBUQUERQUE    PTSUNNY   58  18  21 CALM      29.93F
EL PASO        MOSUNNY   67  32  27 W21       29.93F
$$


........................KEY........................
SKY/WX - SKY CONDITION/WEATHER
TMP    - TEMPERATURE IN FAHRENHEIT
DP     - DEW POINT IN FAHRENHEIT
RH     - RELATIVE HUMIDITY IN PERCENT
WIND   - DIRECTION AND SPEED IN MILES PER HOUR (MPH)
VRB    - VARIABLE WIND DIRECTION
PRES   - MEAN SEA LEVEL PRESSURE IN INCHES OF MERCURY
         F - FALLING PRESSURE   R - RISING PRESSURE
         S - STEADY PRESSURE
VSB    - VISIBILITY IN MILES
HX     - HEAT INDEX IN FAHRENHEIT
WCI    - WIND CHILL INDEX IN FAHRENHEIT
TC     - TEMPERATURE IN CELSIUS WHICH IS ALSO KNOWN AS
         TEMPERATURE IN CENTIGRADE
AFB    - AIR FORCE BASE
         LUKE AFB IS LUKE AIR FORCE BASE
         DAVIS-MONTHAN IS DAVIS-MONTHAN AIR FORCE BASE
NAS    - NAVAL AIR STATION
         EL CENTRO NAS IS EL CENTRO NAVAL AIR STATION
N/A    - NOT AVAILABLE



USA.gov is the U.S. government's official web portal to all federal, state and local government web resources and services.